Location: Unspecified
(0.0000°N, 0.0000°E)
Time: 18:57:00
(UTC+00:00)

Vanguard 3 - All Passes

Search period start: 10 August 2020 00:00
Search period end: 20 August 2020 00:00
Orbit: 509 x 3262 km, 33.3° (Epoch: 10 August)

Date Brightness Start Highest point End Pass type
(mag) Time Alt. Az. Time Alt. Az. Time Alt. Az.
10 Aug - 00:33:55 10° SW 00:49:16 58° SE 01:08:48 10° ENE visible
10 Aug - 02:48:05 10° WSW 03:06:39 67° NW 03:25:11 10° NE visible
10 Aug - 05:09:13 10° W 05:24:45 28° NNW 05:37:32 10° NNE visible
10 Aug - 12:14:20 10° NNW 12:17:53 17° NNE 12:20:43 10° ENE daylight
10 Aug - 14:25:56 10° WNW 14:29:49 44° SW 14:33:21 10° SE daylight
10 Aug - 21:15:09 10° SSE 21:16:00 10° SSE 21:16:53 10° SSE night (unlit)
10 Aug - 23:20:07 10° SSW 23:32:29 38° SE 23:49:36 10° E visible
11 Aug - 01:32:07 10° SW 01:49:06 90° SE 02:09:09 10° NE visible
11 Aug - 03:49:14 10° W 04:07:02 42° NW 04:23:19 10° NNE visible
11 Aug - 06:16:11 10° WNW 06:26:08 16° NNW 06:34:25 10° N daylight
11 Aug - 11:01:21 10° N 11:02:55 11° NNE 11:04:20 10° NNE daylight
11 Aug - 13:11:21 10° NW 13:16:19 54° NNE 13:20:00 10° ESE daylight
11 Aug - 22:07:24 10° SSW 22:16:09 22° SE 22:28:04 10° E night (unlit)
12 Aug - 00:17:25 10° SW 00:31:59 65° SE 00:51:47 10° ENE visible
12 Aug - 02:31:35 10° WSW 02:49:17 60° NW 03:08:10 10° NE visible
12 Aug - 04:53:07 10° WNW 05:08:04 26° NNW 05:20:54 10° NNE visible
12 Aug - 07:26:43 10° NNW 07:28:18 10° NNW 07:29:49 10° N daylight
12 Aug - 11:56:58 10° NNW 12:02:13 25° NNE 12:05:56 10° E daylight
12 Aug - 14:10:09 10° W 14:13:59 30° SW 14:17:15 10° SSE daylight
12 Aug - 20:58:08 10° SSE 21:00:00 10° SSE 21:02:00 10° SE visible
12 Aug - 23:03:43 10° SSW 23:15:31 42° SE 23:32:45 10° ENE visible
13 Aug - 01:15:39 10° WSW 01:31:43 82° NW 01:51:59 10° NE visible
13 Aug - 03:32:59 10° W 03:49:58 38° NNW 04:06:23 10° NNE visible
13 Aug - 06:00:14 10° NW 06:10:01 16° NNW 06:18:19 10° NNE daylight
13 Aug - 10:42:29 10° NNW 10:47:18 16° NNE 10:50:58 10° NE daylight
13 Aug - 12:54:51 10° NW 13:00:31 83° NE 13:04:24 10° ESE daylight
13 Aug - 21:51:06 10° SSW 21:59:37 24° SE 22:11:40 10° E night (unlit)
14 Aug - 00:01:01 10° SW 00:14:44 72° SE 00:34:37 10° ENE visible
14 Aug - 02:15:16 10° WSW 02:32:01 54° NW 02:50:59 10° NE visible
14 Aug - 04:37:11 10° WNW 04:51:29 24° NNW 05:04:15 10° NNE visible
14 Aug - 07:08:24 10° NNW 07:12:35 11° N 07:16:20 10° N daylight
14 Aug - 09:27:25 10° NNW 09:31:33 13° N 09:34:57 10° NE daylight
14 Aug - 11:39:47 10° NW 11:46:30 36° NNE 11:50:48 10° E daylight
14 Aug - 13:54:26 10° W 13:58:03 22° SW 14:01:04 10° SSE daylight
14 Aug - 20:41:21 10° SSE 20:43:56 11° SE 20:46:50 10° SE visible
14 Aug - 22:47:24 10° SSW 22:58:33 47° SE 23:15:44 10° ENE visible
15 Aug - 00:59:21 10° WSW 01:14:26 74° NW 01:34:40 10° NE visible
15 Aug - 03:16:56 10° W 03:33:02 34° NNW 03:49:21 10° NNE visible
15 Aug - 05:44:13 10° NW 05:53:58 16° NNW 06:02:23 10° NNE visible
15 Aug - 08:10:40 10° NNW 08:14:46 12° N 08:18:19 10° NNE daylight
15 Aug - 10:24:34 10° NNW 10:31:38 23° NNE 10:36:25 10° ENE daylight
15 Aug - 12:38:22 10° WNW 12:44:38 69° SW 12:48:43 10° SE daylight
15 Aug - 21:34:50 10° SSW 21:43:02 27° SE 21:55:08 10° E night (unlit)
15 Aug - 23:44:45 10° SW 23:57:34 80° SE 00:17:15 10° ENE visible
16 Aug - 01:59:09 10° W 02:14:54 48° NNW 02:33:40 10° NE visible
16 Aug - 04:21:24 10° WNW 04:35:01 22° NNW 04:47:37 10° NNE visible
16 Aug - 06:50:36 10° NNW 06:56:51 13° N 07:02:14 10° NNE daylight
16 Aug - 09:08:47 10° NNW 09:15:52 17° NNE 09:21:04 10° NE daylight
16 Aug - 11:22:39 10° NW 11:30:42 52° NNE 11:35:29 10° ESE daylight
16 Aug - 13:38:51 10° W 13:42:04 17° SW 13:44:44 10° S daylight
16 Aug - 20:24:40 10° SSE 20:27:48 12° SE 20:31:27 10° ESE visible
16 Aug - 22:31:11 10° SW 22:41:37 52° SE 22:58:35 10° ENE visible
17 Aug - 00:43:12 10° WSW 00:57:18 66° NW 01:17:10 10° NE visible
17 Aug - 03:01:06 10° W 03:16:14 31° NNW 03:32:13 10° NNE visible
17 Aug - 05:28:04 10° NW 05:37:59 16° N 05:46:38 10° NNE visible
17 Aug - 07:51:50 10° NNW 07:59:04 15° N 08:04:46 10° NE daylight
17 Aug - 10:06:50 10° NW 10:15:51 31° NNE 10:21:28 10° E daylight
17 Aug - 12:21:52 10° WNW 12:28:39 51° SW 12:32:56 10° SE daylight
17 Aug - 21:18:37 10° SSW 21:26:27 29° SE 21:38:28 10° E night (unlit)
17 Aug - 23:28:36 10° SW 23:40:32 88° SE 23:59:45 10° NE visible
18 Aug - 01:43:14 10° W 01:57:56 42° NNW 02:16:14 10° NE visible
18 Aug - 04:05:44 10° WNW 04:18:41 21° NNW 04:31:00 10° NNE visible
18 Aug - 06:32:53 10° NNW 06:41:04 14° N 06:47:54 10° NNE daylight
18 Aug - 08:50:36 10° NNW 09:00:05 23° NNE 09:06:32 10° ENE daylight
18 Aug - 11:05:31 10° NW 11:14:46 70° NNE 11:20:00 10° ESE daylight
18 Aug - 13:23:26 10° WSW 13:26:02 13° SW 13:28:15 10° S daylight
18 Aug - 20:08:06 10° SSE 20:11:38 13° SE 20:15:53 10° ESE visible
18 Aug - 22:15:03 10° SW 22:24:46 58° SE 22:41:19 10° ENE night (unlit)
19 Aug - 00:27:14 10° WSW 00:40:19 58° NNW 00:59:33 10° NE visible
19 Aug - 02:45:27 10° WNW 02:59:36 27° NNW 03:15:02 10° NNE visible
19 Aug - 05:11:46 10° NW 05:22:01 16° N 05:31:05 10° NNE visible
19 Aug - 07:33:33 10° NNW 07:43:16 19° NNE 07:50:30 10° NE daylight
19 Aug - 09:49:10 10° NW 09:59:59 41° NNE 10:06:17 10° E daylight
19 Aug - 12:05:22 10° WNW 12:12:34 40° SW 12:17:05 10° SSE daylight
19 Aug - 21:02:27 10° SSW 21:09:53 32° SE 21:21:43 10° E visible
19 Aug - 23:12:36 10° WSW 23:23:38 82° NW 23:42:09 10° NE visible
